FW7361 Weather Reports


time (UTC)temp
C
wind
direction
speed
KPH
gust
KPH
rain 1hr
cm
rain 24hr
cm
rain mn
cm
humidity
%
barometer
mb
20260504081608 8 360 3.2 9.7 0.00 0.00 0.00 56 1008.0
20260504044556 10 360 3.2 4.8 0.00 0.00 0.00 53 1009.4
20260504043101 10 0 0.0 3.2 0.00 0.00 0.00 52 1009.5
20260504041554 10 0 0.0 4.8 0.00 0.00 0.00 51 1009.6
20260504040132 10 0 0.0 3.2 0.00 0.00 0.00 50 1009.8
20260504034601 11 360 1.6 9.7 0.00 0.00 0.00 48 1009.8
20260504033058 12 360 3.2 6.4 0.00 0.00 0.00 47 1009.6
20260504031606 12 69 6.4 9.7 0.00 0.00 0.00 45 1009.5
20260504030058 12 360 4.8 8.0 0.00 0.00 0.00 42 1009.5
20260504024603 12 360 4.8 8.0 0.00 0.00 0.00 44 1009.6
20260504023058 13 360 4.8 6.4 0.00 0.00 0.00 41 1009.4
20260504021600 13 360 4.8 8.0 0.00 0.00 0.00 40 1009.4
20260504020109 13 360 4.8 8.0 0.00 0.00 0.00 42 1009.2
20260504014556 15 360 6.4 9.7 0.00 0.00 0.00 41 1009.3
20260504013053 16 360 8.0 14.5 0.00 0.00 0.00 33 1009.3
20260504011556 17 360 16.1 20.9 0.00 0.00 0.00 32 1009.2
20260504010100 18 360 9.7 20.9 0.00 0.00 0.00 30 1009.2
20260504004555 18 360 9.7 19.3 0.00 0.00 0.00 29 1009.4
20260504003054 18 360 12.9 25.7 0.00 0.00 0.00 29 1009.4
20260504001556 20 360 17.7 25.7 0.00 0.00 0.00 27 1009.5
20260504000101 20 360 16.1 25.7 0.00 0.00 0.00 26 1009.7
20260503234624 19 360 16.1 25.7 0.00 0.00 0.00 27 1009.9
20260503233058 20 360 12.9 27.4 0.00 0.00 0.00 27 1009.9
20260503231552 20 360 11.3 24.1 0.00 0.00 0.00 24 1010.0
20260503230056 18 360 22.5 32.2 0.00 0.00 0.00 24 1010.0
20260503224553 18 360 24.1 32.2 0.00 0.00 0.00 25 1010.1
20260503223056 19 360 4.8 22.5 0.00 0.00 0.00 25 1010.1
20260503221559 18 360 4.8 22.5 0.00 0.00 0.00 24 1010.5
20260503220055 18 360 19.3 30.6 0.00 0.00 0.00 23 1010.9
20260503214556 19 360 16.1 33.8 0.00 0.00 0.00 21 1010.4
20260503213054 19 360 25.7 41.8 0.00 0.00 0.00 22 1010.6
20260503211555 18 360 12.9 32.2 0.00 0.00 0.00 26 1010.9
20260503210053 18 360 17.7 38.6 0.00 0.00 0.00 28 1011.1
20260503204557 18 360 22.5 41.8 0.00 0.00 0.00 26 1011.1
20260503203057 21 360 16.1 40.2 0.00 0.00 0.00 24 1011.2
20260503201553 21 360 11.3 24.1 0.00 0.00 0.00 23 1011.3
20260503200057 21 360 11.3 29.0 0.00 0.00 0.00 21 1011.5
20260503194600 20 360 17.7 30.6 0.00 0.00 0.00 24 1011.7
20260503193057 19 360 4.8 25.7 0.00 0.00 0.00 22 1012.0
20260503191555 20 360 6.4 22.5 0.00 0.00 0.00 28 1012.2
20260503190055 19 360 8.0 17.7 0.00 0.00 0.00 28 1012.6
20260503184557 18 360 6.4 14.5 0.00 0.00 0.00 31 1013.1
20260503183057 18 360 4.8 20.9 0.00 0.00 0.00 35 1013.2
20260503181555 17 360 6.4 20.9 0.00 0.00 0.00 37 1013.6
20260503174559 16 360 4.8 19.3 0.00 0.00 0.00 39 1014.1
20260503173100 16 360 4.8 17.7 0.00 0.00 0.00 44 1014.5
20260503171559 15 360 3.2 16.1 0.00 0.00 0.00 43 1014.7